Location: Black Swamp Observatory
(41.3920°N, 84.1250°W)
Time: 18:31:35
(UTC-05:00)

ISS - Pass Details

Date: 02 December 2021
Orbit: 413 x 422 km, 51.6° (Epoch: 20 January)

Event Time Altitude Azimuth Distance (km) Brightness Sun altitude
Rises 19:33:42 0° 307° (NW) 2,383 0.7 -26.8°
Reaches altitude 10° 19:35:51 10° 312° (NW) 1,512 -0.5 -27.2°
Enters shadow 19:36:22 14° 314° (NW) 1,308 -0.8 -27.3°
